View from above orbital plane
|
View from above satellite
|
Ground track
|
The orbit data is extracted from the following two-line orbital elements,
1 31699U 07026B 21055.75663924 .00000158 00000-0 32144-4 0 9990
2 31699 97.4375 233.2066 0347869 247.6762 125.6445 14.41422289719920
Epoch (UTC): | 24 February 2021 18:09:33 |
Eccentricity: | 0.0347869 |
inclination: | 97.4375° |
perigee height: | 506 km |
apogee height: | 1002 km |
right ascension of ascending node: | 233.2066° |
argument of perigee: | 247.6762° |
revolutions per day: | 14.41422289 |
mean anomaly at epoch: | 125.6445° |
orbit number at epoch: | 71992 |
The dashed part of the orbit path shows where the satellite is in the earth's shadow,
|
|